TimeCST,TemperatureF,Dew PointF,Humidity,Sea Level PressureIn,VisibilityMPH,Wind Direction,Wind SpeedMPH,Gust SpeedMPH,PrecipitationIn,Events,Conditions,WindDirDegrees,DateUTC
12:01 AM,33.8,28.4,81,30.08,3.0,North,10.4,-,0.00,Snow,Light Snow,350,2013-03-02 06:01:00
12:54 AM,33.1,28.9,85,30.10,3.0,North,10.4,-,0.00,Snow,Light Snow,360,2013-03-02 06:54:00
1:02 AM,33.8,28.4,81,30.09,4.0,North,8.1,-,0.00,Snow,Light Snow,360,2013-03-02 07:02:00
1:19 AM,33.8,28.4,81,30.09,5.0,North,6.9,-,0.00,Snow,Light Snow,350,2013-03-02 07:19:00
1:54 AM,33.1,28.9,85,30.10,8.0,North,9.2,-,0.00,,Overcast,350,2013-03-02 07:54:00
2:12 AM,33.8,28.4,81,30.08,8.0,North,6.9,-,N/A,,Overcast,350,2013-03-02 08:12:00
2:40 AM,33.8,28.4,81,30.08,9.0,NNW,10.4,-,N/A,,Overcast,340,2013-03-02 08:40:00
2:54 AM,32.0,28.0,85,30.09,8.0,North,10.4,18.4,0.00,Snow,Light Snow,350,2013-03-02 08:54:00
3:13 AM,32.0,26.6,80,30.08,9.0,North,9.2,-,0.00,Snow,Light Snow,350,2013-03-02 09:13:00
3:46 AM,30.2,26.6,86,30.09,9.0,North,10.4,18.4,0.00,,Overcast,350,2013-03-02 09:46:00
3:54 AM,30.9,26.1,82,30.10,10.0,North,10.4,-,0.00,Snow,Light Snow,350,2013-03-02 09:54:00
4:20 AM,30.2,26.6,86,30.09,9.0,North,8.1,-,0.00,,Overcast,350,2013-03-02 10:20:00
4:34 AM,30.2,26.6,86,30.09,10.0,NNW,9.2,-,0.00,,Overcast,340,2013-03-02 10:34:00
4:54 AM,30.9,25.0,79,30.11,10.0,North,8.1,16.1,0.00,,Overcast,350,2013-03-02 10:54:00
5:54 AM,30.2,24.8,80,30.10,10.0,NNW,5.8,-,N/A,,Overcast,330,2013-03-02 11:54:00
6:13 AM,30.2,24.8,80,30.11,10.0,NNW,9.2,-,N/A,,Overcast,330,2013-03-02 12:13:00
6:40 AM,30.2,24.8,80,30.12,10.0,NNW,10.4,-,N/A,,Overcast,330,2013-03-02 12:40:00
6:54 AM,30.9,25.0,79,30.13,10.0,NNW,9.2,16.1,N/A,,Overcast,340,2013-03-02 12:54:00
7:54 AM,30.9,24.1,76,30.15,5.0,NNW,10.4,-,0.00,Snow,Light Snow,330,2013-03-02 13:54:00
8:51 AM,30.2,24.8,80,30.15,5.0,NW,12.7,18.4,0.00,Snow,Light Snow,320,2013-03-02 14:51:00
8:54 AM,30.9,24.1,76,30.16,6.0,NNW,10.4,18.4,0.00,Snow,Light Snow,330,2013-03-02 14:54:00
9:54 AM,32.0,23.0,69,30.17,10.0,NW,16.1,-,0.00,,Overcast,320,2013-03-02 15:54:00
10:54 AM,30.9,24.1,76,30.18,7.0,NW,13.8,-,N/A,,Overcast,320,2013-03-02 16:54:00
11:49 AM,30.2,26.6,86,30.16,2.0,NW,9.2,-,0.00,Snow,Light Snow,320,2013-03-02 17:49:00
11:54 AM,30.9,26.1,82,30.17,2.0,NW,8.1,-,0.00,Snow,Light Snow,310,2013-03-02 17:54:00
11:56 AM,30.2,26.6,86,30.16,2.0,NW,9.2,-,0.00,Snow,Light Snow,310,2013-03-02 17:56:00
12:54 PM,32.0,24.1,73,30.15,5.0,NW,11.5,-,0.00,Snow,Light Snow,320,2013-03-02 18:54:00
1:54 PM,32.0,24.1,73,30.15,5.0,NW,10.4,21.9,0.00,Snow,Light Snow,320,2013-03-02 19:54:00
2:06 PM,30.2,24.8,80,30.14,3.0,NW,12.7,20.7,0.00,Snow,Light Snow,320,2013-03-02 20:06:00
2:22 PM,32.0,26.6,80,30.14,2.5,NW,9.2,-,0.00,Snow,Light Snow,320,2013-03-02 20:22:00
2:41 PM,32.0,24.8,75,30.14,4.0,NW,10.4,-,0.00,Snow,Light Snow,310,2013-03-02 20:41:00
2:54 PM,32.0,25.0,75,30.15,4.0,NW,12.7,16.1,0.00,Snow,Light Snow,320,2013-03-02 20:54:00
3:54 PM,32.0,24.1,73,30.16,10.0,NW,9.2,18.4,0.00,,Overcast,310,2013-03-02 21:54:00
4:43 PM,30.2,24.8,80,30.16,1.8,NNW,10.4,19.6,0.00,Snow,Light Snow,330,2013-03-02 22:43:00
4:54 PM,30.9,25.0,79,30.17,1.5,NNW,9.2,18.4,0.00,Snow,Light Snow,340,2013-03-02 22:54:00
5:07 PM,30.2,24.8,80,30.17,3.0,NW,10.4,-,0.00,Snow,Light Snow,320,2013-03-02 23:07:00
5:18 PM,30.2,24.8,80,30.17,1.8,NNW,8.1,-,0.00,Snow,Light Snow,340,2013-03-02 23:18:00
5:29 PM,30.2,24.8,80,30.17,1.2,North,5.8,-,0.00,Snow,Light Snow,350,2013-03-02 23:29:00
5:36 PM,30.2,24.8,80,30.17,2.0,NW,5.8,-,0.00,Snow,Light Snow,320,2013-03-02 23:36:00
5:50 PM,30.2,24.8,80,30.17,3.0,NW,9.2,-,0.00,Snow,Light Snow,310,2013-03-02 23:50:00
5:54 PM,30.0,25.0,82,30.19,3.0,NW,9.2,-,0.00,Snow,Light Snow,320,2013-03-02 23:54:00
6:54 PM,30.0,25.0,82,30.19,10.0,NW,5.8,-,N/A,,Mostly Cloudy,310,2013-03-03 00:54:00
7:10 PM,30.2,24.8,80,30.18,9.0,NW,5.8,-,0.00,Snow,Light Snow,320,2013-03-03 01:10:00
7:30 PM,30.2,24.8,80,30.18,10.0,NW,6.9,-,0.00,,Overcast,320,2013-03-03 01:30:00
7:54 PM,30.0,23.0,75,30.19,10.0,NW,5.8,-,0.00,,Overcast,320,2013-03-03 01:54:00
8:54 PM,28.9,21.9,75,30.19,10.0,NW,4.6,-,N/A,,Mostly Cloudy,310,2013-03-03 02:54:00
9:54 PM,30.0,19.9,66,30.20,10.0,NW,8.1,-,N/A,,Overcast,320,2013-03-03 03:54:00
10:54 PM,30.0,18.0,61,30.19,10.0,NNW,6.9,-,N/A,,Overcast,330,2013-03-03 04:54:00
11:54 PM,30.0,18.0,61,30.19,10.0,NW,5.8,-,N/A,,Overcast,310,2013-03-03 05:54:00